www.pogodaiklimat.ru

Погода и климат >> Архив погоды >> Белиз >> Belize


ПОГОДА в Belize

  • Прогноз погоды в Belize
  • Монитор погоды в Belize
  • Климат города

АРХИВ ПОГОДЫ в Belize

Время (UTC), дата Ветер
(напр.,м/с)
 
Видим.   Явления Облачность Т
(С)
Тd
(С)
f
(%)
Тe
(С)
Тes
(С)
Комфортность P
(гПа)
Po
(гПа)
Тmin
(С)
Tmax
(С)
R
(мм)
R24
(мм)
S
(см)
03 14.07 В 4 20 км 8/3 540 м
[Cu med, cong Ci sp]
+28.7 +25.2 81 +42 +42 опасность
перегрева
1017.8 1018.0
06 14.07 В 3 20 км 1/1 480 м
[Cu hum Ci fib]
+28.4 +25.8 86 +42 +42 опасность
перегрева
1017.3 1017.0
09 14.07 Ю 2 20 км в посл. час ливневой дождь 8/8 450 м
[Cu Sc Ci fib]
+23.9 +22.6 92 +31 +31 очень
душно
1015.5 1016.0
12 14.07 В 2 7000 м мгла {ливн. осадки} 1/1 450 м
[Cu Sc Ci fib]
+27.0 +25.0 89 +39 +39 очень
душно
1015.9 1016.0 +22.4 +31.4 6
15 14.07 В 5 8000 м мгла 5/5 600 м
[Cu hum]
+30.3 +24.6 72 +43 +47 опасность
перегрева
1016.9 1017.0
18 14.07 СВ 5 6000 м мгла 5/5 720 м
[Cu med, cong]
+30.5 +25.1 73 +44 +50 опасность
перегрева
1017.2 1017.0
21 14.07 СВ 6 6000 м мгла 1/1 700 м
[Cu med, cong]
+30.8 +25.0 71 +44 +48 опасность
перегрева
1016.1 1016.0
00 15.07 В 5 7000 м мгла 1/1 630 м
[Cu hum Ci fib]
+29.4 +25.4 79 +43 +43 опасность
перегрева
1015.6 1016.0 +22.4 +31.3
03 15.07 В 3 8000 м мгла 1/1 540 м
[Cu hum Ci fib]
+28.5 +25.3 83 +42 +42 опасность
перегрева
1016.4 1016.0
06 15.07 В 2 8000 м мгла 1/1 480 м
[]
+28.0 +25.2 85 +41 +41 опасность
перегрева
1016.6 1017.0
09 15.07 В 3 8000 м мгла 3/3 480 м
[]
+27.6 +25.6 89 +41 +41 опасность
перегрева
1014.7 1015.0
12 15.07 В 1 8000 м мгла 4/4 240 м
[Cu Sc]
+27.5 +25.3 88 +40 +40 очень
душно
1015.2 1015.0 +26.5 +31.3
15 15.07 В 3 10 км мгла 4/4 600 м
[Cu med, cong]
+30.1 +24.8 73 +43 +49 опасность
перегрева
1016.4 1016.0
18 15.07 СВ 5 10 км осадки на расстоянии 8/8 600 м
[Cu Sc]
+30.5 +24.5 70 +43 +45 опасность
перегрева
1016.7 1017.0
21 15.07 СВ 5 20 км 3/3 700 м
[Cu med, cong Ci sp]
+31.2 +25.0 70 +45 +49 опасность
перегрева
1015.2 1015.0
00 16.07 В 4 25 км 8/1 600 м
[Cu med, cong Ci ing]
+29.5 +24.7 75 +42 +42 опасность
перегрева
1015.6 1016.0 +26.5 +31.6
03 16.07 В 3 25 км зарница 8/3 570 м
[Cu med, cong Ci ing]
+28.0 +23.9 78 +39 +39 очень
душно
1016.1 1016.0
06 16.07 В 2 20 км зарница 6/3 480 м
[Cu med, cong Ci ing]
+27.3 +24.3 84 +38 +38 очень
душно
1015.5 1016.0
09 16.07 В 3 20 км зарница 9/5 450 м
[Cu Sc Ci ing]
+27.8 +24.4 82 +39 +39 очень
душно
1014.9 1015.0
12 16.07 В 2 20 км гроза без осадков {ливн. осадки} 9/9 360 м
[Cb cap Ac trans Ci ing]
+27.5 +25.3 88 +40 +40 очень
душно
1015.6 1016.0 +26.4 +31.6 0.1
15 16.07 С 1 15 км в посл. час гроза {ливн. осадки} 9/9 300 м
[Cu Sc Ac trans Ci ing]
+23.6 +23.0 96 +31 +33 очень
душно
1017.4 1017.0
18 16.07 штиль 0 12 км гроза без осадков {ливн. осадки} 9/8 240 м
[Cb cap Ac trans Cs]
+26.5 +25.1 92 +38 +43 очень
душно
1017.2 1017.0 21
21 16.07 В 3 25 км {гроза, ливн. осадки} 9/8 600 м
[Cu Sc Ac As Cs]
+29.5 +26.8 85 +46 +47 опасность
перегрева
1016.2 1016.0
00 17.07 В 3 25 км {гроза, ливн. осадки} 8/4 600 м
[Cu Sc Ci sp]
+28.9 +27.2 91 +46 +46 опасность
перегрева
1016.0 1016.0 +21.3 +29.8 3
03 17.07 В 3 25 км 6/4 540 м
[Cu med, cong Ci fib]
+27.8 +25.5 87 +41 +41 опасность
перегрева
1017.8 1018.0
06 17.07 В 3 25 км 3/3 480 м
[Cu hum Ci fib]
+27.6 +25.0 86 +40 +40 очень
душно
1017.4 1017.0
09 17.07 штиль 0 25 км 3/3 480 м
[Cu hum Ci sp]
+26.8 +25.3 92 +39 +39 очень
душно
1016.3 1016.0
12 17.07 В 2 25 км 9/1 540 м
[Cu Sc Ci sp]
+26.5 +25.1 92 +38 +38 очень
душно
1017.5 1018.0 +25.2 +29.8
15 17.07 В 4 25 км 8/6 700 м
[Cu med, cong Ci sp]
+30.0 +26.0 79 +45 +48 опасность
перегрева
1018.0 1018.0
18 17.07 СВ 5 25 км 6/5 750 м
[Cu med, cong Ci sp]
+31.4 +24.9 68 +45 +50 опасность
перегрева
1017.7 1018.0
21 17.07 В 4 22 км 9/1 720 м
[Cu med, cong Ci sp]
+30.6 +25.5 74 +45 +50 опасность
перегрева
1016.6 1017.0
00 18.07 В 4 25 км 4/1 600 м
[Cu med, cong Ci sp]
+29.8 +24.6 74 +42 +42 опасность
перегрева
1016.7 1017.0 +25.2 +32.0
03 18.07 В 3 25 км 1/1 300 м
[Cu Sc As trans Cs]
+28.6 +25.2 82 +42 +42 опасность
перегрева
1017.1 1017.0
06 18.07 В 4 25 км 1/1 480 м
[Cu hum Ci fib]
+28.5 +25.1 82 +41 +41 опасность
перегрева
1017.5 1018.0
09 18.07 В 2 25 км 6/5 450 м
[Cu Sc Ci fib]
+27.9 +25.3 86 +41 +41 опасность
перегрева
1015.5 1016.0
12 18.07 В 2 25 км 9/8 480 м
[Cu Sc Ac trans Ci fib]
+27.8 +25.4 87 +41 +41 опасность
перегрева
1016.7 1017.0 +26.9 +32.0
15 18.07 В 3 20 км 9/9 540 м
[Cu Sc Ac trans Ci fib]
+29.6 +25.3 78 +43 +44 опасность
перегрева
1016.9 1017.0
18 18.07 В 5 25 км 9/5 600 м
[Cu Sc Ac trans Ci fib]
+30.7 +25.0 72 +44 +48 опасность
перегрева
1016.0 1016.0
21 18.07 В 3 15 км в посл. час гроза {ливн. осадки} 9/8 570 м
[Cu Sc Ac As Ci sp]
+28.5 +25.8 85 +42 +44 опасность
перегрева
1014.6 1015.0
00 19.07 В 4 20 км {гроза, ливн. осадки} 9/6 270 м
[Cu Sc Ac trans Ci sp]
+29.0 +24.9 79 +42 +42 опасность
перегрева
1014.3 1014.0 +26.9 +31.5 8
03 19.07 В 3 25 км 8/4 480 м
[Cu med, cong Ci sp]
+28.2 +24.9 82 +40 +40 очень
душно
1016.2 1016.0
06 19.07 В 3 25 км 6/3 480 м
[Cu hum Ci fib]
+27.9 +25.6 87 +41 +41 опасность
перегрева
1015.7 1016.0
09 19.07 В 3 20 км 6/3 480 м
[Cu hum Ci fib]
+27.8 +25.4 87 +41 +41 опасность
перегрева
1014.7 1015.0
12 19.07 В 2 22 км 9/5 240 м
[Cu Sc Ci sp]
+27.0 +25.1 89 +39 +39 очень
душно
1015.0 1015.0 +26.1 +31.5
15 19.07 В 3 25 км 8/8 630 м
[Cu Sc Ci sp]
+29.8 +25.6 78 +44 +46 опасность
перегрева
1015.5 1016.0
18 19.07 В 4 25 км {ливн. осадки} 9/5 700 м
[Cu med, cong Ci sp]
+31.4 +24.8 68 +45 +51 опасность
перегрева
1014.8 1015.0 0.0
21 19.07 В 4 18 км мгла 9/4 750 м
[Cu med, cong Ci fib]
+31.7 +25.1 68 +45 +49 опасность
перегрева
1013.6 1014.0
00 20.07 В 3 15 км мгла 5/1 600 м
[Cu hum Ci fib]
+29.4 +25.0 77 +42 +42 опасность
перегрева
1013.6 1014.0 +26.1 +31.7
03 20.07 В 2 15 км мгла 1/1 540 м
[Cu hum]
+28.3 +24.5 80 +40 +40 очень
душно
1015.4 1015.0
06 20.07 В 2 15 км мгла 3/3 480 м
[Cu hum]
+27.5 +24.8 85 +39 +39 очень
душно
1015.4 1015.0
09 20.07 штиль 0 15 км мгла 1/1 480 м
[Cu hum]
+26.9 +25.0 89 +39 +39 очень
душно
1014.1 1014.0
12 20.07 штиль 0 15 км мгла 9/6 540 м
[Cu med, cong Ci fib]
+26.3 +25.2 94 +38 +38 очень
душно
1014.9 1015.0 +25.4 +31.7
15 20.07 ЮВ 3 12 км мгла 6/5 660 м
[Cu med, cong Ci fib]
+29.9 +25.7 78 +44 +50 опасность
перегрева
1015.5 1016.0
18 20.07 В 3 12 км мгла 6/3 720 м
[Cu med, cong Ci fib]
+31.5 +24.7 67 +44 +56 опасность
перегрева
1014.6 1015.0
21 20.07 В 5 15 км мгла 4/3 700 м
[Cu med, cong Ci fib]
+31.4 +24.9 68 +45 +49 опасность
перегрева
1013.7 1014.0
00 21.07 В 4 18 км мгла 1/1 600 м
[Cu med, cong Ac trans Ci sp]
+29.8 +24.8 75 +43 +43 опасность
перегрева
1014.1 1014.0 +25.4 +31.7

 

Местоположение метеостанции Belize (Белиз): широта 17.53 долгота -88.30 высота над уровнем моря 5 м.

В архиве по умолчанию представлена погода в Belize за последнюю неделю. Архивные данные за месяц целиком и за предыдущие месяцы, начиная с января 2011 года, Вы можете получить, выбрав интересующий диапазон дат из раскрывающегося списка и нажав кнопку "Ввод!".


*Определитесь, кто Вы:
робот инопланетянин человек

Внимание! Время в таблицах - всемирное. Для получения местного времени необходимо прибавить поправку, которая в Belize равна -4 ч.

Смотрите также архив погоды в соседних городах и на ближайших метеорологических станциях:

Погода в Chetumal (Мексика) (106 км)
Погода в Flores (Гватемала) (181 км)
Погода в Puerto Barrios (Гватемала) (204 км)
Погода в Tela (Гондурас) (219 км)
Погода в Roatan (Гондурас) (233 км)
Погода в La Mesa (Гондурас) (235 км)
Погода в Felipe Carrillo Puerto (Мексика) (245 км)
Погода в La Ceiba (Гондурас) (252 км)
Погода в Yoro (Гондурас) (292 км)
Погода в Trujillo (Гондурас) (309 км)

Пояснения к столбцам:

Ветер - указаны скорость ветра в м/с - средняя за 10 мин, порывы в срок и между сроками (в фигурных скобках) и направление, откуда дует ветер: С - северный, СВ - северо-восточный, В - восточный, ЮВ - юго-восточный, Ю - южный, ЮЗ - юго-западный, З - западный, СЗ - северо-западный.
Видимость - горизонтальная дальность видимости в метрах или километрах. При видимости от 1 до 10 км при отсутствии осадков обычно наблюдается дымка, при ухудшении видимости до 1 км и менее - туман. В сухую погоду видимость может ухудшаться дымом, пылью или мглою.
Явления - указаны атмосферные явления, наблюдавшиеся в срок или в последний час перед сроком; фигурными скобками обозначены явления, наблюдавшиеся между сроками (за 1-3 часа до срока); квадратными скобками обозначены град или гололедные отложения с указанием их диаметра в мм.
Облачность - указаны через наклонную черту общая и нижняя облачность в баллах и высота нижней границы облаков в метрах; квадратными скобками обозначены формы облаков: Ci - перистые, Cs - перисто-слоистые, Cc - перисто-кучевые, Ac - высококучевые, As - высокослоистые, Sc - слоисто-кучевые, Ns - слоисто-дождевые, Cu - кучевые, Cb - кучево-дождевые. Подробнее классификацию облаков см. в Атласе облаков (PDF).
T - Температура воздуха - температура, измеренная на высоте 2 м над землей.
Td - Температура точки росы - температура, при понижении до которой содержащийся в воздухе водяной пар достигнет насыщения.
f - Относительная влажность воздуха - влажноcть воздуха, измеренная на высоте 2 м над землей.
Te - Эффективная температура - температура, которую ощущает одетый по сезону человек в тени. Характеристика душности погоды. При расчете учитывается влияние влажности воздуха и скорости ветра на теплоощущения человека.
Tes - Эффективная температура на солнце - температура, которую ощущает человек, с поправкой на солнечный нагрев. Характеристика знойности погоды. Зависит от высоты солнца над горизонтом, облачности и скорости ветра. Ночью, в пасмурную погоду, а также при ветре 12 м/с и более поправка равна нулю.
P - Атмосферное давление - приведенное к уровню моря атмосферное давление.
Po - Атмосферное давление - измеренное на уровне метеостанции атмосферное давление.
Tmin - Минимальная температура - минимум температуры воздуха на высоте 2 м над землей.
Tmax - Максимальная температура - максимум температуры воздуха на высоте 2 м над землей.
R - Количество осадков - Количество выпавших осадков за период времени, мм. При наведении курсора мыши на число - период времени, за который выпало указанное количество осадков.
R24 - Количество осадков - Количество выпавших осадков за 24 часа, мм.
S - Снежный покров - Высота снежного покрова, см. При наведении курсора мыши на число - состояние снежного покрова и степень покрытия местности в баллах.